CAPE
1524 1879 2212 2464 2562 2468 2304 2225 2213 2303 2446 2324 2226 1807 1582 1603 1472 1209 852 282 3 0 0 0 0 114 318 247 218 158 2 0
1483 1631 1967 2213 2312 2026 1992 2008 1991 2135 2094 1891 1397 1203 1156 1034 836 686 421 66 0 0 0 0 0 183 125 37 18 0 0 0
1492 1537 1754 2093 2219 2080 1864 1855 1862 1828 1652 1143 682 567 355 165 164 271 177 38 7 0 0 0 0 5 5 1 0 0 0 0
1521 1540 1580 1645 1832 2040 2045 2050 1948 1839 1384 723 76 0 0 19 51 113 52 1 1 0 0 0 0 0 0 0 0 0 0 0
1572 1606 1568 1642 1659 1590 1720 1876 1648 1198 689 23 0 0 0 0 0 0 0 0 0 0 0 0 0 0 0 0 0 0 0 0
1710 1716 1760 1650 1580 1530 1484 1461 1197 662 131 0 0 0 0 0 0 0 0 0 0 0 0 0 0 0 0 0 0 0 0 0
1584 1611 1802 1869 1789 1477 1523 1285 1140 684 86 0 0 0 0 0 0 0 0 0 0 0 0 0 0 0 0 0 0 0 0 0
1601 1580 1727 1908 1989 1653 1688 1493 1114 720 346 17 0 0 0 0 0 0 0 0 0 0 0 0 0 0 0 0 0 0 0 0
1537 1764 1483 1698 2059 1791 1539 1239 742 687 391 7 0 0 0 0 0 0 0 0 0 0 0 0 0 0 0 0 0 0 0 0
1532 1551 1665 1587 1937 1536 1238 1117 710 640 308 22 0 0 0 0 0 0 0 0 0 0 0 0 0 0 0 0 0 0 0 0
1712 1615 1721 1799 1573 1248 888 765 610 458 200 35 1 0 0 0 0 0 0 0 0 0 0 0 0 0 0 0 0 0 0 0
1486 1709 1881 1867 1451 969 673 451 445 172 81 35 4 1 1 0 0 0 0 0 0 0 0 0 0 0 0 0 0 0 0 0
1414 1850 1735 1044 862 571 272 175 153 5 1 46 1 0 0 0 0 0 0 0 0 0 0 0 0 0 0 0 0 0 0 0
1326 1471 839 1003 787 524 151 206 5 16 11 1 1 0 0 0 0 0 0 0 0 0 0 0 0 0 0 0 0 0 0 0
617 462 553 441 262 0 0 0 0 0 0 0 2 1 0 0 0 0 0 0 0 0 0 0 0 0 0 0 0 0 0 0
421 290 227 52 0 0 0 6 0 0 0 0 2 1 2 0 0 0 0 0 0 0 0 0 0 0 0 0 0 0 0 0
0 97 149 116 0 0 0 0 0 0 0 0 0 0 2 1 0 0 0 0 0 0 0 0 0 0 0 0 0 0 0 0
0 0 61 0 0 0 0 1 0 0 0 0 0 0 1 2 3 3 1 0 0 0 0 0 0 0 0 0 0 0 0 0
0 0 0 18 1 0 0 0 1 0 0 0 0 0 1 0 0 2 5 0 0 0 0 0 0 0 0 0 0 0 0 0
0 0 0 0 42 9 0 0 0 3 0 0 0 0 0 0 0 0 0 0 0 0 0 0 0 0 0 0 0 0 0 0
CIN
-434 -336 -236 -167 -138 -134 -129 -108 -84 -53 -29 -30 -45 -79 -88 -74 -92 -114 -201 -323 -337 -0 -0 -0 -0 -328 -236 -293 -296 -263 -70 -0
-434 -367 -253 -200 -167 -183 -158 -132 -89 -54 -38 -44 -104 -127 -111 -114 -171 -213 -295 -431 -0 -0 -0 -0 -0 -261 -336 -368 -341 -0 -0 -0
-409 -358 -275 -184 -134 -125 -131 -97 -71 -56 -56 -135 -167 -170 -263 -408 -361 -268 -315 -426 -483 -0 -0 -0 -0 -335 -394 -246 -0 -0 -0 -0
-397 -343 -287 -222 -175 -115 -80 -54 -44 -31 -85 -198 -509 -136 -0 -554 -420 -318 -360 -175 -133 -0 -0 -0 -0 -0 -0 -0 -0 -0 -0 -0
-363 -327 -281 -221 -182 -166 -119 -78 -98 -177 -261 -630 -0 -0 -0 -0 -0 -0 -0 -0 -0 -0 -0 -0 -0 -0 -0 -0 -0 -0 -0 -0
-305 -277 -253 -222 -183 -161 -146 -132 -167 -284 -455 -0 -0 -0 -0 -0 -0 -0 -0 -0 -0 -0 -0 -0 -0 -0 -0 -0 -0 -0 -0 -0
-315 -268 -226 -208 -159 -153 -117 -130 -136 -239 -457 -0 -0 -0 -0 -0 -0 -0 -0 -0 -0 -0 -0 -0 -0 -0 -0 -0 -0 -0 -0 -0
-280 -272 -213 -148 -124 -148 -103 -86 -133 -199 -281 -435 -0 -0 -0 -0 -0 -0 -0 -0 -0 -0 -0 -0 -0 -0 -0 -0 -0 -0 -0 -0
-337 -254 -242 -190 -111 -110 -107 -128 -196 -164 -232 -368 -0 -0 -0 -0 -0 -0 -0 -0 -0 -0 -0 -0 -0 -0 -0 -0 -0 -0 -0 -0
-345 -286 -256 -231 -147 -135 -120 -132 -164 -138 -194 -378 -0 -0 -0 -0 -0 -0 -0 -0 -0 -0 -0 -0 -0 -0 -0 -0 -0 -0 -0 -0
-314 -285 -247 -192 -158 -134 -165 -187 -185 -157 -186 -345 -119 -0 -0 -0 -0 -0 -0 -0 -0 -0 -0 -0 -0 -0 -0 -0 -0 -0 -0 -0
-358 -326 -248 -166 -165 -174 -195 -237 -258 -260 -211 -235 -244 -1 -0 -0 -0 -0 -0 -0 -0 -0 -0 -0 -0 -0 -0 -0 -0 -0 -0 -0
-382 -295 -237 -296 -235 -248 -279 -318 -268 -412 -0 -279 -1 -0 -0 -0 -0 -0 -0 -0 -0 -0 -0 -0 -0 -0 -0 -0 -0 -0 -0 -0
-242 -204 -352 -244 -253 -253 -278 -277 -262 -332 -389 -0 -0 -0 -0 -0 -0 -0 -0 -0 -0 -0 -0 -0 -0 -0 -0 -0 -0 -0 -0 -0
-221 -271 -214 -259 -303 -0 -0 -0 -0 -0 -0 -0 -0 -0 -0 -0 -0 -0 -0 -0 -0 -0 -0 -0 -0 -0 -0 -0 -0 -0 -0 -0
-129 -204 -216 -288 -0 -0 -0 -301 -0 -0 -0 -0 -0 -0 -0 -0 -0 -0 -0 -0 -0 -0 -0 -0 -0 -0 -0 -0 -0 -0 -0 -0
-0 -146 -148 -168 -0 -0 -0 -0 -0 -0 -0 -0 -0 -0 -0 -0 -0 -0 -0 -0 -0 -0 -0 -0 -0 -0 -0 -0 -0 -0 -0 -0
-0 -0 -81 -8 -0 -0 -0 -0 -0 -0 -0 -0 -0 -0 -0 -0 -0 -0 -0 -0 -0 -0 -0 -0 -0 -0 -0 -0 -0 -0 -0 -0
-0 -0 -0 -123 -80 -0 -0 -0 -186 -0 -0 -0 -0 -0 -0 -0 -0 -0 -0 -0 -0 -0 -0 -0 -0 -0 -0 -0 -0 -0 -0 -0
-0 -0 -0 -0 -67 -103 -0 -0 -22 -103 -0 -0 -0 -0 -0 -0 -0 -0 -0 -0 -0 -5 -0 -0 -0 -0 -0 -0 -0 -0 -0 -0
Wind_Speed
9 10 12 13 14 17 17 18 16 15 15 16 17 17 17 17 18 18 17 14 9 8 10 13 13 15 21 20 20 19 13 10
10 9 10 10 11 15 16 16 16 16 16 14 16 17 17 18 17 18 17 16 12 11 11 13 15 22 23 20 19 18 11 10
10 10 9 11 10 11 14 15 16 16 16 19 14 8 10 13 13 15 15 14 12 11 13 16 17 22 22 21 16 7 9 7
12 12 12 11 9 10 10 11 11 11 12 12 8 7 6 10 14 16 16 12 9 8 12 17 15 9 10 13 6 8 8 7
13 13 13 13 10 8 6 6 6 8 13 12 9 8 7 5 6 6 5 11 5 4 5 3 7 6 7 7 7 7 6 6
14 14 14 15 10 9 9 7 7 7 10 11 10 6 7 7 6 8 5 4 5 5 4 4 5 9 10 10 8 7 5 5
18 16 16 15 15 10 9 9 8 9 9 11 10 9 8 7 8 8 8 5 4 5 5 6 7 9 9 11 10 9 8 6
15 17 14 15 15 15 12 11 10 9 10 11 13 11 10 9 9 9 9 7 5 5 6 7 8 8 9 10 10 9 7 8
18 17 15 15 17 15 12 10 11 11 10 13 14 13 12 11 9 8 8 7 8 5 7 8 9 8 10 8 9 9 8 8
19 16 18 17 16 13 10 11 11 11 11 11 15 14 14 11 9 9 7 8 8 7 8 9 9 9 9 7 7 8 9 8
19 17 18 18 15 12 12 12 11 11 12 13 14 13 14 11 10 9 11 9 9 10 8 11 11 9 9 8 8 8 7 6
18 16 15 15 10 8 7 8 8 7 7 10 15 12 15 13 10 11 11 10 9 9 11 8 10 11 10 8 6 6 6 6
15 16 13 10 8 8 5 7 5 6 7 12 14 14 17 14 12 13 12 13 13 12 13 14 10 11 10 8 6 5 7 6
3 5 9 9 8 6 2 6 4 5 5 8 12 13 17 17 18 16 14 9 12 13 15 10 8 11 9 7 5 2 3 4
7 7 3 1 7 6 3 4 4 2 4 4 7 10 13 16 16 16 15 13 12 16 16 17 13 8 17 8 5 5 5 2
4 3 1 1 1 4 6 7 5 4 7 6 6 7 9 14 12 16 18 15 15 15 14 13 13 15 11 2 4 7 6 5
6 1 4 4 6 4 4 5 3 3 5 9 10 9 8 8 14 14 14 14 16 17 17 16 12 12 12 4 3 3 2 6
2 2 6 6 7 6 6 7 6 5 7 7 7 7 9 12 9 10 11 15 17 16 17 17 15 12 11 6 6 7 5 5
4 4 5 7 8 8 11 12 10 9 9 8 7 6 7 12 14 13 11 11 13 18 17 17 17 15 17 8 8 6 6 4
1 7 7 4 6 8 10 12 9 9 9 7 7 9 10 14 15 15 15 15 11 12 13 13 16 14 17 13 8 6 6 7
Wind_Direction
160 166 171 163 160 160 162 163 162 162 157 155 150 139 137 136 130 127 127 129 143 149 113 107 102 108 119 111 111 107 103 98
166 167 172 171 168 163 163 161 158 154 153 147 141 141 137 133 131 130 131 138 159 151 118 108 100 116 116 109 106 103 105 100
168 169 171 175 170 167 162 161 156 149 147 144 144 147 137 132 132 132 135 148 159 161 132 118 107 116 114 115 115 114 112 106
174 171 169 170 173 172 172 171 167 163 156 152 138 147 149 143 140 137 141 146 162 160 137 123 113 115 113 109 108 115 108 113
178 174 172 171 177 177 178 174 167 160 155 152 147 141 145 145 132 133 138 144 151 150 134 113 118 117 105 102 102 104 105 108
178 177 175 175 175 180 181 180 171 163 160 155 152 149 155 158 147 145 142 149 164 145 126 115 110 116 119 110 104 100 99 98
186 177 181 179 177 181 182 184 181 170 164 165 159 156 157 169 159 158 158 151 166 149 132 118 112 112 111 112 104 97 92 94
181 190 181 182 182 179 181 182 178 173 172 176 169 163 168 176 168 164 158 161 158 138 133 124 117 114 104 104 101 91 83 86
192 187 182 181 189 183 182 175 171 178 179 176 178 171 173 170 167 162 163 153 142 119 106 116 114 116 111 106 104 99 97 88
193 188 187 183 183 176 181 176 182 185 183 175 187 182 180 166 164 167 160 150 144 134 134 122 124 128 130 127 117 107 103 100
185 188 186 182 175 188 186 185 193 193 195 173 187 180 178 172 170 160 161 161 151 146 143 137 135 132 135 127 127 122 119 109
184 185 181 172 168 172 179 184 184 177 210 190 177 184 173 168 159 154 165 161 154 148 136 130 136 132 118 106 100 102 112 108
183 175 163 148 162 171 177 182 193 183 193 194 185 185 168 173 152 159 176 167 163 156 143 138 139 131 115 88 62 71 118 120
83 143 137 160 168 177 189 162 175 191 182 218 190 196 182 174 160 164 169 166 159 161 151 140 140 157 139 115 133 64 36 125
38 32 3 134 166 127 105 70 65 114 176 177 211 204 193 178 174 171 172 170 173 170 167 165 162 178 170 132 142 185 140 95
64 83 260 81 276 253 193 187 173 182 195 165 212 209 220 183 173 185 178 169 181 176 173 175 167 173 189 138 115 147 163 149
39 268 238 215 212 237 262 266 178 181 197 182 178 175 210 214 178 186 188 179 175 172 177 176 178 170 184 136 98 123 110 139
16 165 245 216 191 212 232 262 262 193 200 204 201 183 181 195 194 203 208 182 182 180 181 180 176 179 187 158 157 164 164 144
284 257 290 226 208 199 213 217 215 238 204 197 191 199 191 196 192 192 205 186 208 177 184 175 182 180 184 173 159 169 154 125
23 328 319 246 238 238 228 224 216 214 204 199 208 209 206 186 191 194 190 176 206 234 177 180 180 183 181 181 166 160 158 153